Henderson, NV

1:21 PM PDT on June 25, 2017 (GMT -0700)
Henderson

Weather History for KHND - May, 2013

Change the Weather History Date:

Saturday, May 18, 2013

  Actual Average (KLAS) Record (KLAS)
Temperature  
Mean Temperature 74 °F -  
Max Temperature 88 °F 90 °F 104 °F (2008)
Min Temperature 61 °F 61 °F 45 °F (1977)
Cooling Degree Days 10    
Growing Degree Days 24 (Base 50)    
Moisture  
Dew Point 32 °F    
Average Humidity 23    
Maximum Humidity 42    
Minimum Humidity 9    
Precipitation  
Precipitation 0.00 in - - ()
Sea Level Pressure  
Sea Level Pressure 29.84 in    
Wind  
Wind Speed 10 mph (SSW)    
Max Wind Speed 15 mph    
Max Gust Speed 21 mph    
Visibility 10 miles    
Events      
Averages and records for this station are not official NWS values.
T = Trace of Precipitation, MM = Missing Value Source: NWS Daily Summary

Daily Weather History Graph

Daily Weather History Graph

Search for Another Location

Airport or City:

Trip Planner

Search our weather history database for the weather conditions in past years. The results will help you decide how hot, cold, wet, or windy it might be!

Date:

Astronomy

May. 18, 2013 Rise Set
Actual Time 5:32 AM PDT 7:42 PM PDT
Civil Twilight 5:03 AM PDT 8:10 PM PDT
Nautical Twilight 4:28 AM PDT 8:46 PM PDT
Astronomical Twilight 3:50 AM PDT 9:24 PM PDT
Moon 1:02 PM PDT (5/18) 1:13 AM PDT (5/18)
Length of Visible Light 15h 07m
Length of Day
14h 09m
First Quarter, 56% of the Moon is Illuminated
May 18
First Quarter
May 24
Full
May 31
Last Quarter
Jun 8
New
Jun 16
First Quarter

Hourly Weather History & Observations

Time (PDT) Temp. Dew Point Humidity Pressure Visibility Wind Dir Wind Speed Gust Speed Precip Events Conditions
12:56 AM 68.0 °F 34.9 °F 29% 29.83 in 10.0 mi SSW 10.4 mph - N/A   Clear
1:56 AM 65.8 °F 36.9 °F 34% 29.83 in 10.0 mi SSW 15.0 mph - N/A   Clear
2:56 AM 65.8 °F 36.0 °F 33% 29.83 in 10.0 mi South 11.5 mph - N/A   Clear
3:56 AM 63.9 °F 36.9 °F 37% 29.84 in 10.0 mi South 13.8 mph - N/A   Clear
4:56 AM 61.9 °F 37.9 °F 41% 29.85 in 10.0 mi South 11.5 mph - N/A   Clear
5:56 AM 61.0 °F 37.9 °F 42% 29.88 in 10.0 mi SSW 11.5 mph - N/A   Clear
6:56 AM 63.9 °F 37.9 °F 38% 29.89 in 10.0 mi South 15.0 mph - N/A   Clear
7:56 AM 68.0 °F 37.9 °F 33% 29.91 in 10.0 mi South 12.7 mph - N/A   Clear
8:56 AM 72.0 °F 37.9 °F 29% 29.91 in 10.0 mi Calm Calm - N/A   Clear
9:56 AM 73.9 °F 38.8 °F 28% 29.91 in 10.0 mi Calm Calm - N/A   Clear
10:56 AM 77.0 °F 36.9 °F 23% 29.90 in 10.0 mi Variable 3.5 mph - N/A   Clear
11:56 AM 79.9 °F 36.9 °F 21% 29.89 in 10.0 mi Calm Calm - N/A   Clear
12:56 PM 82.9 °F 36.0 °F 19% 29.87 in 10.0 mi NNW 4.6 mph - N/A   Clear
1:56 PM 84.9 °F 34.9 °F 17% 29.84 in 10.0 mi South 12.7 mph 18.4 mph N/A   Clear
2:56 PM 86.9 °F 34.9 °F 16% 29.81 in 10.0 mi SW 13.8 mph 20.7 mph N/A   Scattered Clouds
3:56 PM 86.9 °F 30.0 °F 13% 29.81 in 10.0 mi SSW 6.9 mph - N/A   Clear
4:56 PM 88.0 °F 28.0 °F 12% 29.79 in 10.0 mi SSW 11.5 mph 17.3 mph N/A   Clear
5:56 PM 86.9 °F 27.1 °F 11% 29.79 in 10.0 mi Variable 3.5 mph - N/A   Clear
6:56 PM 86.0 °F 20.1 °F 9% 29.79 in 10.0 mi West 13.8 mph - N/A   Clear
7:56 PM 82.9 °F 17.1 °F 9% 29.79 in 10.0 mi West 8.1 mph - N/A   Clear
8:56 PM 81.9 °F 18.1 °F 9% 29.80 in 10.0 mi WSW 6.9 mph - N/A   Clear
9:56 PM 75.9 °F 19.0 °F 12% 29.81 in 10.0 mi South 8.1 mph - N/A   Clear
10:56 PM 74.8 °F 26.1 °F 16% 29.81 in 10.0 mi South 10.4 mph - N/A   Clear
11:56 PM 73.9 °F 28.0 °F 18% 29.82 in 10.0 mi South 6.9 mph - N/A   Clear